Terminal Aerodrome Forecast
Issued by NWS Sterling, VA

Home | Current Version | Previous Version | Text Only | Print | Product List | Glossary On
Versions: 1 2 3 4 5 6 7 8 9 10 11 12 13 14 15
000
FTUS41 KLWX 301700
TAFMRB
TAF
KMRB 301740Z 3018/3118 24005KT P6SM SCT050
     FM310000 00000KT P6SM BKN060
     FM311300 27006KT P6SM FEW050 SCT080=

USA.gov is the U.S. government's official web portal to all federal, state and local government web resources and services.